Terminal Aerodrome Forecast
Issued by NWS Houston/Galveston TX

Home | Current Version | Previous Version | Text Only | Print | Product List | Glossary On
Versions: 1 2 3 4 5 6 7 8 9 10 11 12 13 14 15 16 17 18 19 20 21 22 23 24 25 26 27 28 29 30 31 32 33 34 35 36 37 38 39 40 41 42 43 44 45 46 47 48 49 50
000
FTUS44 KHGX 160807 AAA
TAFHOU
TAF AMD
KHOU 160807Z 1608/1706 03006KT P6SM BKN014 BKN230
      TEMPO 1610/1611 SCT025
     FM161100 09005KT P6SM VCSH SCT015 SCT025 BKN250
     FM161600 11010KT P6SM VCTS BKN035CB BKN250
     FM162300 12006KT P6SM BKN050 BKN250=

USA.gov is the U.S. government's official web portal to all federal, state and local government web resources and services.